Time,TemperatureF,DewpointF,PressureIn,WindDirection,WindDirectionDegrees,WindSpeedMPH,WindSpeedGustMPH,Humidity,HourlyPrecipIn,Conditions,Clouds,dailyrainin,SoftwareType,DateUTC
2013-07-21 00:10:00,75.0,73.5,29.93,NW,315,0.0,-999.0,95,-99.99,,,0.00,Acu-Link.com,2013-07-21 04:10:00,
2013-07-21 00:26:00,75.0,73.8,29.93,NW,315,0.0,-999.0,96,-99.99,,,0.00,Acu-Link.com,2013-07-21 04:26:00,
2013-07-21 00:41:00,75.0,73.8,29.92,NW,315,0.0,-999.0,96,-99.99,,,0.00,Acu-Link.com,2013-07-21 04:41:00,
2013-07-21 00:56:00,75.4,74.2,29.92,NW,315,0.0,-999.0,96,-99.99,,,0.00,Acu-Link.com,2013-07-21 04:56:00,
2013-07-21 01:11:00,75.4,74.2,29.92,NW,315,0.0,-999.0,96,-99.99,,,0.00,Acu-Link.com,2013-07-21 05:11:00,
2013-07-21 01:26:00,75.6,74.4,29.92,NE,45,1.7,-999.0,96,-99.99,,,0.00,Acu-Link.com,2013-07-21 05:26:00,
2013-07-21 01:41:00,75.6,74.4,29.92,NE,45,0.0,-999.0,96,-99.99,,,0.00,Acu-Link.com,2013-07-21 05:41:00,
2013-07-21 01:56:00,75.4,74.2,29.92,NE,45,0.0,-999.0,96,-99.99,,,0.00,Acu-Link.com,2013-07-21 05:56:00,
2013-07-21 02:11:00,75.4,74.2,29.92,NE,45,0.0,-999.0,96,-99.99,,,0.00,Acu-Link.com,2013-07-21 06:11:00,
2013-07-21 02:26:00,75.4,74.2,29.92,NE,45,0.0,-999.0,96,-99.99,,,0.00,Acu-Link.com,2013-07-21 06:26:00,
2013-07-21 02:42:00,75.4,74.2,29.92,NE,45,0.0,-999.0,96,-99.99,,,0.00,Acu-Link.com,2013-07-21 06:42:00,
2013-07-21 02:57:00,75.4,74.2,29.91,NE,45,0.0,-999.0,96,-99.99,,,0.00,Acu-Link.com,2013-07-21 06:57:00,
2013-07-21 03:12:00,75.4,74.2,29.91,NE,45,0.0,-999.0,96,-99.99,,,0.00,Acu-Link.com,2013-07-21 07:12:00,
2013-07-21 03:27:00,75.4,74.5,29.90,NE,45,0.0,-999.0,97,-99.99,,,0.00,Acu-Link.com,2013-07-21 07:27:00,
2013-07-21 03:42:00,75.4,74.5,29.91,NE,45,0.0,-999.0,97,-99.99,,,0.00,Acu-Link.com,2013-07-21 07:42:00,
2013-07-21 03:57:00,75.6,74.7,29.91,NE,45,0.0,-999.0,97,-99.99,,,0.00,Acu-Link.com,2013-07-21 07:57:00,
2013-07-21 04:13:00,75.6,74.7,29.90,NE,45,0.0,-999.0,97,-99.99,,,0.00,Acu-Link.com,2013-07-21 08:13:00,
2013-07-21 04:29:00,75.4,74.5,29.90,NE,45,0.0,-999.0,97,-99.99,,,0.00,Acu-Link.com,2013-07-21 08:29:00,
2013-07-21 04:44:00,75.2,74.3,29.90,NE,45,0.0,-999.0,97,-99.99,,,0.00,Acu-Link.com,2013-07-21 08:44:00,
2013-07-21 04:59:00,75.4,74.5,29.90,NE,45,0.0,-999.0,97,-99.99,,,0.00,Acu-Link.com,2013-07-21 08:59:00,
2013-07-21 05:14:00,75.6,74.7,29.90,NE,45,0.0,-999.0,97,-99.99,,,0.00,Acu-Link.com,2013-07-21 09:14:00,
2013-07-21 05:29:00,75.4,74.5,29.91,NE,45,0.0,-999.0,97,-99.99,,,0.00,Acu-Link.com,2013-07-21 09:29:00,
2013-07-21 05:44:00,75.7,74.8,29.92,NE,45,0.0,-999.0,97,-99.99,,,0.00,Acu-Link.com,2013-07-21 09:44:00,
2013-07-21 05:59:00,75.9,75.0,29.92,NE,45,0.0,-999.0,97,-99.99,,,0.00,Acu-Link.com,2013-07-21 09:59:00,
2013-07-21 06:14:00,76.1,75.2,29.91,NE,45,0.0,-999.0,97,-99.99,,,0.00,Acu-Link.com,2013-07-21 10:14:00,
2013-07-21 06:29:00,76.1,75.2,29.91,NE,45,1.1,-999.0,97,-99.99,,,0.00,Acu-Link.com,2013-07-21 10:29:00,
2013-07-21 06:44:00,76.3,75.1,29.92,NE,45,0.0,-999.0,96,-99.99,,,0.00,Acu-Link.com,2013-07-21 10:44:00,
2013-07-21 07:00:00,76.6,75.4,29.92,NE,45,0.0,-999.0,96,-99.99,,,0.00,Acu-Link.com,2013-07-21 11:00:00,
2013-07-21 07:15:00,76.6,75.4,29.93,NE,45,0.0,-999.0,96,-99.99,,,0.00,Acu-Link.com,2013-07-21 11:15:00,
2013-07-21 07:30:00,77.0,75.8,29.93,NE,45,0.0,-999.0,96,-99.99,,,0.00,Acu-Link.com,2013-07-21 11:30:00,
2013-07-21 07:45:00,77.2,76.0,29.93,NE,45,0.0,-999.0,96,-99.99,,,0.00,Acu-Link.com,2013-07-21 11:45:00,
2013-07-21 08:00:00,77.7,76.1,29.95,NE,45,0.0,-999.0,95,-99.99,,,0.00,Acu-Link.com,2013-07-21 12:00:00,
2013-07-21 08:15:00,78.3,76.7,29.95,NE,45,0.0,-999.0,95,-99.99,,,0.00,Acu-Link.com,2013-07-21 12:15:00,
2013-07-21 08:30:00,79.2,77.0,29.95,NE,45,0.0,-999.0,93,-99.99,,,0.00,Acu-Link.com,2013-07-21 12:30:00,
2013-07-21 08:45:00,79.9,77.0,29.95,SSW,202,0.0,-999.0,91,-99.99,,,0.00,Acu-Link.com,2013-07-21 12:45:00,
2013-07-21 09:00:00,81.5,77.6,29.95,South,180,2.7,-999.0,88,-99.99,,,0.00,Acu-Link.com,2013-07-21 13:00:00,
2013-07-21 09:16:00,82.6,77.6,29.95,South,180,4.7,-999.0,85,-99.99,,,0.00,Acu-Link.com,2013-07-21 13:16:00,
2013-07-21 09:31:00,83.7,78.3,29.96,SSE,157,2.7,-999.0,84,-99.99,,,0.00,Acu-Link.com,2013-07-21 13:31:00,
2013-07-21 09:46:00,84.7,78.6,29.96,South,180,2.7,-999.0,82,-99.99,,,0.00,Acu-Link.com,2013-07-21 13:46:00,
2013-07-21 10:01:00,86.4,79.5,29.96,South,180,2.7,-999.0,80,-99.99,,,0.00,Acu-Link.com,2013-07-21 14:01:00,
2013-07-21 10:16:00,85.5,79.0,29.96,SSW,202,0.0,-999.0,81,-99.99,,,0.00,Acu-Link.com,2013-07-21 14:16:00,
2013-07-21 10:31:00,85.6,79.1,29.96,SSW,202,2.2,-999.0,81,-99.99,,,0.00,Acu-Link.com,2013-07-21 14:31:00,
2013-07-21 10:46:00,85.5,78.6,29.96,SSW,202,4.2,-999.0,80,-99.99,,,0.00,Acu-Link.com,2013-07-21 14:46:00,
2013-07-21 11:01:00,86.4,79.1,29.96,SE,135,4.2,-999.0,79,-99.99,,,0.00,Acu-Link.com,2013-07-21 15:01:00,
2013-07-21 11:16:00,85.8,78.5,29.96,SSW,202,3.7,-999.0,79,-99.99,,,0.00,Acu-Link.com,2013-07-21 15:16:00,
2013-07-21 11:32:00,86.5,78.8,29.97,SW,225,2.7,-999.0,78,-99.99,,,0.00,Acu-Link.com,2013-07-21 15:32:00,
2013-07-21 11:47:00,87.8,78.9,29.96,SSE,157,4.2,-999.0,75,-99.99,,,0.00,Acu-Link.com,2013-07-21 15:47:00,
2013-07-21 12:02:00,88.5,79.1,29.97,South,180,4.7,-999.0,74,-99.99,,,0.00,Acu-Link.com,2013-07-21 16:02:00,
2013-07-21 12:17:00,89.1,78.4,29.97,South,180,2.2,-999.0,71,-99.99,,,0.00,Acu-Link.com,2013-07-21 16:17:00,
2013-07-21 12:32:00,89.6,78.5,29.96,SSW,202,2.7,-999.0,70,-99.99,,,0.00,Acu-Link.com,2013-07-21 16:32:00,
2013-07-21 12:47:00,88.5,78.3,29.96,SSW,202,5.3,-999.0,72,-99.99,,,0.00,Acu-Link.com,2013-07-21 16:47:00,
2013-07-21 13:02:00,88.3,78.5,29.96,ESE,112,7.3,-999.0,73,-99.99,,,0.00,Acu-Link.com,2013-07-21 17:02:00,
2013-07-21 13:17:00,88.5,78.7,29.94,ESE,112,7.3,-999.0,73,-99.99,,,0.00,Acu-Link.com,2013-07-21 17:17:00,
2013-07-21 13:33:00,87.8,78.0,29.93,East,90,4.7,-999.0,73,-99.99,,,0.00,Acu-Link.com,2013-07-21 17:33:00,
2013-07-21 13:48:00,89.4,79.2,29.95,ESE,112,8.3,-999.0,72,-99.99,,,0.00,Acu-Link.com,2013-07-21 17:48:00,
2013-07-21 14:03:00,88.3,78.1,29.94,SSE,157,6.3,-999.0,72,-99.99,,,0.00,Acu-Link.com,2013-07-21 18:03:00,
2013-07-21 14:18:00,88.9,78.2,29.94,ESE,112,6.8,-999.0,71,-99.99,,,0.00,Acu-Link.com,2013-07-21 18:18:00,
2013-07-21 14:33:00,87.8,77.6,29.95,ESE,112,9.4,-999.0,72,-99.99,,,0.00,Acu-Link.com,2013-07-21 18:33:00,
2013-07-21 14:48:00,88.3,78.5,29.93,South,180,4.7,-999.0,73,-99.99,,,0.00,Acu-Link.com,2013-07-21 18:48:00,
2013-07-21 15:03:00,87.1,77.8,29.93,ESE,112,5.8,-999.0,74,-99.99,,,0.00,Acu-Link.com,2013-07-21 19:03:00,
2013-07-21 15:19:00,87.1,77.8,29.92,ESE,112,6.8,-999.0,74,-99.99,,,0.00,Acu-Link.com,2013-07-21 19:19:00,
2013-07-21 15:34:00,85.5,78.6,29.93,SSE,157,1.1,-999.0,80,-99.99,,,0.00,Acu-Link.com,2013-07-21 19:34:00,
2013-07-21 15:49:00,81.9,76.6,29.93,NE,45,2.2,-999.0,84,-99.99,,,0.01,Acu-Link.com,2013-07-21 19:49:00,
2013-07-21 16:04:00,79.9,75.3,29.93,WSW,247,2.2,-999.0,86,-99.99,,,0.02,Acu-Link.com,2013-07-21 20:04:00,
2013-07-21 16:19:00,79.7,75.5,29.91,ESE,112,2.7,-999.0,87,-99.99,,,0.03,Acu-Link.com,2013-07-21 20:19:00,
2013-07-21 16:34:00,80.4,76.2,29.91,SE,135,3.7,-999.0,87,-99.99,,,0.03,Acu-Link.com,2013-07-21 20:34:00,
2013-07-21 16:49:00,81.1,76.9,29.90,ESE,112,3.7,-999.0,87,-99.99,,,0.04,Acu-Link.com,2013-07-21 20:49:00,
2013-07-21 17:04:00,81.5,76.9,29.91,SE,135,2.2,-999.0,86,-99.99,,,0.04,Acu-Link.com,2013-07-21 21:04:00,
2013-07-21 17:19:00,82.0,77.4,29.90,SSE,157,5.3,-999.0,86,-99.99,,,0.04,Acu-Link.com,2013-07-21 21:19:00,
2013-07-21 17:35:00,82.4,77.4,29.91,SW,225,5.8,-999.0,85,-99.99,,,0.04,Acu-Link.com,2013-07-21 21:35:00,
2013-07-21 17:50:00,81.5,74.7,29.91,SSW,202,4.2,-999.0,80,-99.99,,,0.04,Acu-Link.com,2013-07-21 21:50:00,
2013-07-21 18:05:00,83.5,76.3,29.89,SSE,157,4.7,-999.0,79,-99.99,,,0.04,Acu-Link.com,2013-07-21 22:05:00,
2013-07-21 18:20:00,84.7,77.1,29.88,ESE,112,6.3,-999.0,78,-99.99,,,0.04,Acu-Link.com,2013-07-21 22:20:00,
2013-07-21 18:35:00,85.6,78.3,29.87,SSE,157,3.2,-999.0,79,-99.99,,,0.04,Acu-Link.com,2013-07-21 22:35:00,
2013-07-21 18:50:00,86.5,78.8,29.88,South,180,3.2,-999.0,78,-99.99,,,0.04,Acu-Link.com,2013-07-21 22:50:00,
2013-07-21 19:05:00,86.7,78.2,29.89,South,180,1.7,-999.0,76,-99.99,,,0.04,Acu-Link.com,2013-07-21 23:05:00,
2013-07-21 19:20:00,84.7,77.4,29.91,South,180,4.2,-999.0,79,-99.99,,,0.04,Acu-Link.com,2013-07-21 23:20:00,
2013-07-21 19:35:00,83.7,77.2,29.92,ESE,112,3.7,-999.0,81,-99.99,,,0.04,Acu-Link.com,2013-07-21 23:35:00,
2013-07-21 19:51:00,83.1,77.0,29.93,SSE,157,6.3,-999.0,82,-99.99,,,0.04,Acu-Link.com,2013-07-21 23:51:00,
2013-07-21 20:06:00,82.8,77.1,29.94,SSE,157,2.2,-999.0,83,-99.99,,,0.04,Acu-Link.com,2013-07-22 00:06:00,
2013-07-21 20:21:00,82.6,77.3,29.94,ESE,112,2.7,-999.0,84,-99.99,,,0.04,Acu-Link.com,2013-07-22 00:21:00,
2013-07-21 20:36:00,82.2,76.9,29.94,South,180,0.0,-999.0,84,-99.99,,,0.04,Acu-Link.com,2013-07-22 00:36:00,
2013-07-21 20:51:00,82.0,76.7,29.94,South,180,0.0,-999.0,84,-99.99,,,0.04,Acu-Link.com,2013-07-22 00:51:00,
2013-07-21 21:06:00,81.7,76.7,29.94,NE,45,0.0,-999.0,85,-99.99,,,0.04,Acu-Link.com,2013-07-22 01:06:00,
2013-07-21 21:21:00,81.5,76.9,29.95,SW,225,0.0,-999.0,86,-99.99,,,0.04,Acu-Link.com,2013-07-22 01:21:00,
2013-07-21 21:36:00,79.7,74.1,29.97,East,90,5.8,-999.0,83,-99.99,,,0.04,Acu-Link.com,2013-07-22 01:36:00,
2013-07-21 21:51:00,78.6,73.3,29.98,NE,45,3.7,-999.0,84,-99.99,,,0.04,Acu-Link.com,2013-07-22 01:51:00,
2013-07-21 22:07:00,77.4,72.9,29.98,NE,45,1.7,-999.0,86,-99.99,,,0.04,Acu-Link.com,2013-07-22 02:07:00,
2013-07-21 22:22:00,76.8,73.0,29.99,East,90,5.3,-999.0,88,-99.99,,,0.04,Acu-Link.com,2013-07-22 02:22:00,
2013-07-21 22:37:00,76.3,71.8,29.99,ENE,67,2.7,-999.0,86,-99.99,,,0.04,Acu-Link.com,2013-07-22 02:37:00,
2013-07-21 22:52:00,75.7,71.9,29.99,NE,45,2.7,-999.0,88,-99.99,,,0.04,Acu-Link.com,2013-07-22 02:52:00,
2013-07-21 23:07:00,75.4,71.9,29.98,ESE,112,1.7,-999.0,89,-99.99,,,0.04,Acu-Link.com,2013-07-22 03:07:00,
2013-07-21 23:22:00,75.0,71.9,29.97,ENE,67,4.2,-999.0,90,-99.99,,,0.04,Acu-Link.com,2013-07-22 03:22:00,
2013-07-21 23:38:00,75.0,72.2,29.98,ENE,67,4.7,-999.0,91,-99.99,,,0.04,Acu-Link.com,2013-07-22 03:38:00,
2013-07-21 23:53:00,75.2,72.4,29.97,East,90,2.7,-999.0,91,-99.99,,,0.04,Acu-Link.com,2013-07-22 03:53:00,